Tracking 26325 objects as of 30-Nov-2022
HD Live streaming from Space Station
objects crossing your sky now

COSMOS 1408 DEB

Track COSMOS 1408 DEB now!
10-day predictions


NORAD ID: 52572
Int'l Code: 1982-092BYV
Perigee: 430.3 km
Apogee: 576.4 km
Inclination: 82.5 °
Period: 94.5 minutes
Semi major axis: 6874 km
RCS: Unknown
Launch date: September 16, 1982
Source: Commonwealth of Independent States (former USSR) (CIS)
Launch site: PLESETSK MISSILE AND SPACE COMPLEX (PKMTR)

Note: This is SATELLITE DEBRIS
aabbcc
Your satellite tracking list
Your tracking list is empty




NASA's NSSDC Master Catalog

Two Line Element Set (TLE):
1 52572U 82092BYV 22327.69245124  .00069552  00000-0  24906-2 0  9991
2 52572  82.5469 122.7294 0106276 208.1175 151.4300 15.23207880 36032
Source of the keplerian elements: AFSPC